Weather in Milford Sound

New Zealand     44°40′23″S   167°55′27″E
temp.,
°C
wind,
m/s
gust,
m/s
humid.,
%
clouds,
%
prec.,
mm/h
press.,
hPa
HPBL,
m
13 april, tue
tue1300:00+6nne2598100 3.3 1004392
03:00+5ne2496100 7.8 1002618
06:00+4ese2397100 16.8 1002296
09:00+3ese2297100 4.9 1002210
12:00+4ese129696 11.0 1002306
15:00+8n1279100 0.4 999716
18:00+6w009092 1.3 100111
21:00+6s129286 0.1 100343
14 april, wed
wed1400:00+3s22965 0.1 100544
03:00+3se01945 0.0 100510
06:00+2se11942 0.0 100612
09:00+6se238733 0.0 1006128
12:00+12se12654 0.0 1005919
15:00+13wnw115799 0.0 10031369
18:00+8nw2290100 0.1 1004122
21:00+5nnw249998 0.0 1006136
15 april, thu
thu1500:00+6nnw2494100 0.0 1006412
03:00+6nnw369899 0.3 1004325
06:00+6nnw3699100 3.1 1002479
09:00+5n3698100 6.4 1004392
12:00+6n3598100 7.0 1002284
15:00+7nnw3699100 0.8 1001487
18:00+7nnw3699100 2.8 1001791
21:00+6nw3699100 1.5 1002374
16 april, fri
fri1600:00+5n4897100 2.1 1001800
03:00+7nw4999100 14.9 996914
06:00
09:00+4nw2498100 7.1 1001598
12:00+5nw3483100 9.3 1003920
15:00+3wnw249499 2.3 1004351
18:00+2w228895 2.8 100757
21:000w119332 0.1 101013
17 april, sat
sat1700:00−1wsw119048 0.1 101312
03:000sw118665 0.0 101416
06:00+1wnw118790 0.0 101444
09:00+3wnw128851 0.0 1016143
12:00+6nw237593 0.0 1015702
15:00+4nnw2494100 0.1 1015536
18:00+4n3699100 2.3 1015454
21:00+5nnw249999 3.0 1015250